Location: Newark
(12.5331°N, 56.4669°W)
Time: 19:50:38
(UTC+00:00)

LightSail 2 - Pass Details

Date: 28 January 2020
Orbit: 701 x 721 km, 24.0° (Epoch: 16 February)

Event Time Altitude Azimuth Distance (km) Brightness Sun altitude
Rises 22:48:51 0° 296° (WNW) 3,071 9.2 -15.6°
Reaches altitude 10° 22:51:18 10° 299° (WNW) 2,156 8.3 -16.1°
Maximum altitude 22:56:19 61° 19° (NNE) 794 5.2 -17.3°
Enters shadow 22:58:33 32° 88° (E) 1,192 5.7 -17.9°
